Content
SEND FEEDBACK

Daily
Averages
Monthly
Summary
United States of America

ORANGE LAKE, NEW YORK


Home > North America > United States > New York
Elevation: 581 feet     Latitude: 41 47N     Longitude: 074 58W

WEATHER
 
SELECT A DAY
Number of Records: 148,168;   Date Range: 11/1/95 - 8/12/14
 
SHARE

PRINT THIS DATA

[ ← Previous Day ]
WEATHER ALMANAC - FEBRUARY 14, 2013
[ Next Day → ]
[ °C ]   °F
Weather ElementAverageHighLow
Temperature37.9 °F46 °F (3:51 pm)33.1 °F (5:51 am)
Dewpoint27.6 °F30.9 °F (1:38 am)21.9 °F (1:51 pm)
Humidity69 %89 % (1:38 am)39 % (3:51 pm)
Barometer29.89 in30.00 in (11:51 pm)29.73 in (1:51 am)
Wind Speed4 mph8.1 mph (1:51 pm)
Wind Gust18.4 mph (11:51 pm)
Weather ElementAverage
Visibility9.2 mi
Wind DirectionESE (97.6 °)

Weather ElementTotal
Precipitation---
Heating Degree Days25.5 (Base 65)
Averaged from 29 records on February 14, 2013
WEATHER CONDITIONS BREAKOUT
WIND DIRECTION BREAKOUT
WEATHER BY HOUR - FEBRUARY 14, 2013
[ °C ]   °F
Local TimeTemperatureDewpointHumidityBarometerVisibilityWind DirectionWind SpeedGust SpeedPrecipitationEventsConditions
1:38 AM34.0 °F30.9 °F89 %29.75 in9.0 miVariable4.6 mph0.00 inOvercast
1:51 AM34.0 °F30.9 °F89 %29.73 in10.0 miVariable5.8 mph0.00 inOvercast
2:12 AM34.0 °F30.9 °F89 %29.76 in9.0 miVariable5.8 mphOvercast
2:24 AM34.0 °F30.9 °F89 %29.77 in10.0 miVariable5.8 mphOvercast
2:49 AM33.8 °F30.2 °F87 %29.79 in8.0 miCalmOvercast
2:51 AM34.0 °F30.9 °F89 %29.77 in8.0 miCalmOvercast
3:02 AM34.0 °F30.9 °F89 %29.80 in8.0 miCalmOvercast
3:12 AM34.0 °F30.9 °F89 %29.80 in8.0 miNorth (350°)6.9 mphOvercast
3:51 AM34.0 °F30.0 °F85 %29.79 in10.0 miCalmOvercast
4:51 AM34.0 °F30.0 °F85 %29.81 in9.0 miVariable5.8 mphClear
5:51 AM33.1 °F28.9 °F85 %29.83 in9.0 miCalmClear
6:51 AM33.1 °F27.0 °F78 %29.86 in9.0 miNW (310°)3.5 mphClear
7:51 AM34.0 °F27.0 °F75 %29.91 in9.0 miWest (280°)5.8 mphClear
8:51 AM36.0 °F25.0 °F64 %29.93 in10.0 miNW (310°)5.8 mphClear
9:51 AM37.0 °F24.1 °F59 %29.94 in10.0 miWNW (300°)4.6 mphClear
10:51 AM39.9 °F24.1 °F53 %29.95 in10.0 miVariable4.6 mphClear
11:51 AM41.0 °F25.0 °F53 %29.94 in10.0 miWNW (290°)3.5 mphClear
12:51 PM44.1 °F25.0 °F47 %29.93 in10.0 miVariable3.5 mphClear
1:51 PM44.1 °F21.9 °F42 %29.93 in10.0 miWNW (290°)8.1 mphClear
2:51 PM44.1 °F23.0 °F43 %29.93 in10.0 miVariable4.6 mphClear
3:51 PM46.0 °F21.9 °F39 %29.94 in10.0 miVariable3.5 mphClear
4:51 PM44.1 °F24.1 °F45 %29.96 in10.0 miSW (220°)8.1 mphClear
5:51 PM42.1 °F23.0 °F47 %29.96 in10.0 miVariable5.8 mphClear
6:51 PM39.9 °F30.0 °F68 %29.98 in9.0 miVariable4.6 mphClear
7:51 PM39.9 °F30.9 °F70 %29.98 in8.0 miCalmClear
8:51 PM39.9 °F30.0 °F68 %29.99 in8.0 miCalmClear
9:51 PM42.1 °F28.0 °F58 %29.99 in9.0 miWSW (240°)6.9 mphClear
10:51 PM39.9 °F28.0 °F63 %29.99 in8.0 miCalmClear
11:51 PM39.9 °F28.0 °F63 %30.00 in8.0 miWSW (240°)8.1 mph18.4 mphClear
Hourly data recorded from KNYC, located miles away from Orange Lake, New York







STORIES FROM OUR PARTNERS